Погода в Петергофе

Россия / Санкт-Петербург и Ленинградская область     59°53′02″N   29°54′31″E
темп.,
°C
ветер,
м/с
пор.,
м/с
влажн.,
%
обл.,
%
осадки,
мм/ч
давл.,
гПа
погр.,
м
27 июля, вт
вт2700:00+19ююз22690 0.0 102035
03:00+18ююз11706 0.0 102027
06:00+19ю12680 0.0 102038
09:00+23зюз01565 0.0 1019213
12:00+26ююв12443 0.0 10191227
15:00+27ю12426 0.0 10171495
18:00+28ююв34375 0.0 10151306
21:00+23юв365560 0.0 101581
28 июля, ср
ср2800:00+20вюв226598 0.0 101430
03:00+19вюв3564100 0.0 1014117
06:00+19вюв3566100 0.0 1012112
09:00+21ююв2363100 0.2 1011254
12:00+22ююз2371100 1.1 1010434
15:00+22ююв1371100 1.2 1009364
18:00+23вюв356797 0.0 1007553
21:00+20юз238772 4.8 100655
29 июля, чт
чт2900:00+19зюз369399 0.1 1005164
03:00+18з48936 0.2 1004227
06:00+18з489110 0.0 1004294
09:00+20зюз5882100 0.0 1003554
12:00+23з5863100 0.0 1003723
15:00+22з686863 1.2 1003893
18:00+21з610709 0.5 1002620
21:00+20з49764 0.8 1002397
30 июля, пт
пт3000:00+18юз488534 0.0 1002237
03:00+18юз61079100 0.0 1002492
06:00+17юз61179100 0.0 1002541
09:00+20юз7106443 0.1 10011196
12:00+21зюз7105534 0.6 10011325
15:00+22зюз595099 0.8 9991093
18:00+19з266330 0.1 999315
21:00+17ююз6107990 1.2 999413
31 июля, сб
сб3100:00+15ю61382100 0.7 997408
03:00+15ю71577100 0.7 994863
06:00+15ююз10158593 0.6 993901
09:00+17ююз8148983 2.1 9921107
12:00+18зюз813805 1.8 9931261
15:00+20з9136573 2.2 9951389
18:00+20з711678 0.1 9961224
21:00+18зюз6107430 0.2 997893